FW1786 Weather Reports


Display with metric or nautical units.
time (UTC)temp
F
wind
direction
speed
MPH
gust
MPH
rain 1hr
in
rain 24hr
in
rain mn
in
humidity
%
barometer
mb
20260901113016 69 20 0.0 1.0 0.00 0.00 0.00 90 1018.6
20260901111526 69 20 0.0 0.0 0.00 0.00 0.00 90 1018.5
20260901110037 69 20 0.0 0.0 0.00 0.00 0.00 89 1018.4
20260901104526 69 20 0.0 1.0 0.00 0.00 0.00 88 1018.4
20260901103011 69 20 0.0 1.0 0.00 0.00 0.00 88 1018.3
20260901101512 69 20 0.0 0.0 0.00 0.00 0.00 88 1018.3
20260901100013 69 20 0.0 1.0 0.00 0.00 0.00 88 1018.3
20260901094511 69 24 0.0 1.0 0.00 0.00 0.00 88 1018.1
20260901093009 69 24 0.0 1.0 0.00 0.00 0.00 88 1018.1
20260901091524 69 26 0.0 1.0 0.00 0.00 0.00 86 1018.1
20260901090022 69 35 0.0 1.0 0.00 0.00 0.00 86 1018.0
20260901084523 69 5 0.0 1.0 0.00 0.00 0.00 86 1018.0
20260901083014 69 5 0.0 0.0 0.00 0.00 0.00 85 1017.9
20260901081514 70 5 0.0 0.0 0.00 0.00 0.00 85 1017.8
20260901080008 70 5 0.0 1.0 0.00 0.00 0.00 85 1017.8
20260901074530 70 5 0.0 1.0 0.00 0.00 0.00 84 1017.9
20260901073019 70 5 0.0 1.0 0.00 0.00 0.00 83 1017.8
20260901071515 71 5 0.0 1.0 0.00 0.00 0.00 83 1017.7
20260901070028 71 5 0.0 1.0 0.00 0.00 0.00 84 1017.7
20260901064516 72 5 0.0 0.0 0.00 0.00 0.00 81 1017.7
20260901063013 72 5 0.0 1.0 0.00 0.00 0.00 82 1017.8
20260901061514 73 17 0.0 1.0 0.00 0.00 0.00 80 1017.7
20260901060022 73 34 0.0 1.0 0.00 0.00 0.00 80 1017.9
20260901054527 74 342 0.0 2.0 0.00 0.00 0.00 78 1017.7
20260901053028 74 313 0.0 2.0 0.00 0.00 0.00 79 1017.7
20260901051523 75 304 0.0 1.0 0.00 0.00 0.00 74 1017.6
20260901050020 76 306 0.0 2.0 0.00 0.00 0.00 72 1017.6
20260901044526 76 5 0.0 1.0 0.00 0.00 0.00 72 1017.6
20260901043030 77 9 0.0 2.0 0.00 0.00 0.00 70 1017.4
20260901041516 78 79 0.0 2.0 0.00 0.00 0.00 64 1017.4
20260901040021 77 203 0.0 3.0 0.00 0.00 0.00 68 1017.4
20260901034522 78 314 0.0 2.0 0.00 0.00 0.00 65 1017.5
20260901033035 78 88 0.0 3.0 0.00 0.00 0.00 64 1017.5
20260901031516 80 227 0.0 2.0 0.00 0.00 0.00 60 1017.3
20260901030027 81 70 0.0 2.0 0.00 0.00 0.00 58 1017.1
20260901024527 82 5 0.0 2.0 0.00 0.00 0.00 56 1017.0
20260901023032 83 85 0.0 2.0 0.00 0.00 0.00 54 1016.8
20260901021527 83 27 0.0 2.0 0.00 0.00 0.00 55 1016.7
20260901020024 84 185 0.0 1.0 0.00 0.00 0.00 54 1016.6
20260901014523 85 48 0.0 2.0 0.00 0.00 0.00 53 1016.4
20260901013005 86 110 0.0 2.0 0.00 0.00 0.00 50 1016.2
20260901011504 86 25 0.0 2.0 0.00 0.00 0.00 49 1016.0
20260901010006 87 147 0.0 5.0 0.00 0.00 0.00 48 1015.8
20260901004505 88 171 1.0 2.0 0.00 0.00 0.00 47 1015.8
20260901003011 90 160 0.0 2.0 0.00 0.00 0.00 45 1015.7
20260901001510 91 321 0.0 1.0 0.00 0.00 0.00 42 1015.6
20260901000009 93 309 0.0 3.0 0.00 0.00 0.00 41 1015.5
20260831234523 94 289 1.0 4.0 0.00 0.00 0.00 39 1015.4
20260831233013 95 264 0.0 4.0 0.00 0.00 0.00 37 1015.5
20260831231506 96 222 2.0 9.0 0.00 0.00 0.00 36 1015.5
20260831230007 97 174 2.0 6.0 0.00 0.00 0.00 34 1015.6
20260831224511 97 225 2.0 5.0 0.00 0.00 0.00 34 1015.6
20260831223012 96 236 0.0 3.0 0.00 0.00 0.00 35 1015.5
20260831221522 96 184 1.0 4.0 0.00 0.00 0.00 39 1015.6
20260831220026 95 115 0.0 2.0 0.00 0.00 0.00 37 1015.6
20260831214509 96 341 0.0 4.0 0.00 0.00 0.00 35 1015.7
20260831213025 98 197 0.0 5.0 0.00 0.00 0.00 34 1015.7
20260831211516 99 342 1.0 8.0 0.00 0.00 0.00 33 1015.7
20260831210014 97 11 1.0 5.0 0.00 0.00 0.00 33 1015.9
20260831204508 97 288 1.0 3.0 0.00 0.00 0.00 35 1016.0
20260831203013 97 352 1.0 5.0 0.00 0.00 0.00 36 1016.3
20260831201517 99 5 1.0 5.0 0.00 0.00 0.00 33 1016.3
20260831200010 99 309 1.0 7.0 0.00 0.00 0.00 34 1016.6
20260831194516 99 183 3.0 9.0 0.00 0.00 0.00 33 1016.7
20260831193012 99 253 2.0 8.0 0.00 0.00 0.00 32 1017.0
20260831191519 97 333 2.0 7.0 0.00 0.00 0.00 34 1017.1
20260831190023 97 32 1.0 5.0 0.00 0.00 0.00 36 1017.2
20260831184518 96 212 1.0 3.0 0.00 0.00 0.00 35 1017.3
20260831183015 98 36 1.0 3.0 0.00 0.00 0.00 36 1017.7
20260831181515 97 344 2.0 6.0 0.00 0.00 0.00 34 1017.8
20260831180032 97 171 1.0 6.0 0.00 0.00 0.00 36 1017.9
20260831174524 96 18 3.0 12.0 0.00 0.00 0.00 36 1018.1
20260831173023 96 347 1.0 5.0 0.00 0.00 0.00 35 1018.2
20260831171516 96 180 2.0 7.0 0.00 0.00 0.00 38 1018.3
20260831170017 96 157 2.0 5.0 0.00 0.00 0.00 38 1018.5
20260831164513 94 92 2.0 6.0 0.00 0.00 0.00 41 1018.5
20260831163006 94 173 3.0 9.0 0.00 0.00 0.00 42 1018.6
20260831161510 93 178 3.0 6.0 0.00 0.00 0.00 46 1018.5
20260831160004 91 205 2.0 6.0 0.00 0.00 0.00 48 1018.8
20260831154513 90 284 1.0 6.0 0.00 0.00 0.00 51 1018.8
20260831153005 89 5 1.0 9.0 0.00 0.00 0.00 53 1018.7
20260831151513 87 160 3.0 9.0 0.00 0.00 0.00 55 1018.7
20260831150014 85 244 0.0 4.0 0.00 0.00 0.00 60 1018.8
20260831144503 84 305 1.0 6.0 0.00 0.00 0.00 61 1018.8
20260831143005 82 192 1.0 5.0 0.00 0.00 0.00 63 1018.9
20260831141511 79 126 0.0 3.0 0.00 0.00 0.00 68 1019.0
20260831140009 77 191 0.0 2.0 0.00 0.00 0.00 73 1019.0
20260831134508 75 93 0.0 2.0 0.00 0.00 0.00 75 1018.9
20260831133003 74 76 0.0 1.0 0.00 0.00 0.00 77 1018.9
20260831131511 71 29 0.0 1.0 0.00 0.00 0.00 82 1018.8
20260831130010 69 29 0.0 0.0 0.00 0.00 0.00 85 1018.5
20260831124508 67 29 0.0 0.0 0.00 0.00 0.00 86 1018.3
20260831123017 67 29 0.0 1.0 0.00 0.00 0.00 87 1018.1
20260831121520 67 29 0.0 1.0 0.00 0.00 0.00 87 1018.0
20260831120028 67 29 0.0 0.0 0.00 0.00 0.00 86 1017.8
20260831114518 67 29 0.0 0.0 0.00 0.00 0.00 85 1017.6